This is the latest recevied weather packets stored in our database for station/object KM5R. If no packets are shown the sender has not sent any weather packets the latest 10 day(s).
| Time | Temp. | Humidity | Pressure | Rain* | Wind** | Luminosity | Snow |
|---|---|---|---|---|---|---|---|
| 1777409656 | 30.56° C | 64% | 1011.7 hPa | 0 mm | - | 216 W/m² | - |
| 1777409353 | 30.56° C | 64% | 1011.7 hPa | 0 mm | - | 241 W/m² | - |
| 1777409048 | 30.56° C | 64% | 1011.7 hPa | 0 mm | - | 238 W/m² | - |
| 1777408746 | 30.56° C | 62% | 1011.9 hPa | 0 mm | - | 328 W/m² | - |
| 1777408441 | 30.56° C | 64% | 1011.9 hPa | 0 mm | - | 403 W/m² | - |
| 1777408136 | 30° C | 64% | 1012 hPa | 0 mm | - | 315 W/m² | - |
| 1777407832 | 30.56° C | 64% | 1012.1 hPa | 0 mm | - | 325 W/m² | - |
| 1777407529 | 30.56° C | 64% | 1012.1 hPa | 0 mm | - | 329 W/m² | - |
| 1777407228 | 30.56° C | 64% | 1012.5 hPa | 0 mm | - | 580 W/m² | - |
| 1777406924 | 30° C | 67% | 1012.3 hPa | 0 mm | - | 607 W/m² | - |
| 1777406619 | 30° C | 65% | 1012.5 hPa | 0 mm | - | 614 W/m² | - |
| 1777406315 | 30° C | 67% | 1012.3 hPa | 0 mm | - | 703 W/m² | - |
| 1777406014 | 30° C | 67% | 1012.6 hPa | 0 mm | - | 667 W/m² | - |
| 1777405711 | 30° C | 67% | 1012.7 hPa | 0 mm | - | 636 W/m² | - |
| 1777405407 | 30° C | 67% | 1013.1 hPa | 0 mm | - | 614 W/m² | - |
| 1777405105 | 29.44° C | 68% | 1013.1 hPa | 0 mm | - | 414 W/m² | - |
| 1777404803 | 30° C | 67% | 1013.2 hPa | 0 mm | - | 387 W/m² | - |
| 1777404500 | 29.44° C | 67% | 1013.3 hPa | 0 mm | - | 480 W/m² | - |
| 1777404196 | 29.44° C | 68% | 1013.3 hPa | 0 mm | - | 438 W/m² | - |
| 1777403893 | 29.44° C | 67% | 1013.4 hPa | 0 mm | - | 359 W/m² | - |
| 1777403592 | 28.89° C | 69% | 1013.9 hPa | 0 mm | - | 357 W/m² | - |
| 1777403292 | 28.33° C | 69% | 1014 hPa | 0 mm | - | 297 W/m² | - |
| 1777402987 | 28.33° C | 69% | 1014.1 hPa | 0 mm | - | 186 W/m² | - |
| 1777402682 | 28.89° C | 69% | 1014.2 hPa | 0 mm | - | 187 W/m² | - |
| 1777402381 | 29.44° C | 68% | 1014.1 hPa | 0 mm | - | 216 W/m² | - |
* Rain latest hour (hover to see other rain measurements)
** Current wind speed in m/s (hover to see current wind gust speed)